GRARBER Weather Reports


Display with metric or nautical units.
time (UTC)temp
F
wind
direction
speed
MPH
gust
MPH
rain 1hr
in
rain 24hr
in
rain mn
in
humidity
%
barometer
mb
20201023041721 46 260 24.0 31.0 0.00 0.00 0.00 99
20201023031723 46 260 23.0 0.0 0.00 0.00 0.00 99
20201023021722 48 240 20.0 0.0 0.00 0.00 0.00 81
20201023011725 48 240 17.0 24.0 0.00 0.00 0.00 70
20201023001725 50 220 16.0 0.0 0.00 0.00 0.00 61
20201022231725 50 210 17.0 0.0 0.00 0.00 0.00 61
20201022221722 50 200 16.0 0.0 0.00 0.00 0.00 61
20201022211828 50 190 16.0 0.0 0.00 0.00 0.00 61
20201022201831 50 190 16.0 0.0 0.00 0.00 0.00 61
20201022191828 50 190 17.0 0.0 0.00 0.00 0.00 66
20201022182351 50 190 18.0 0.0 0.00 0.00 0.00 66
20201022171828 50 190 18.0 0.0 0.00 0.00 0.00 66
20201022161827 50 190 14.0 0.0 0.00 0.00 0.00 66
20201022151728 52 210 9.0 0.0 0.00 0.00 0.00 66
20201022141724 54 210 8.0 0.0 0.00 0.00 0.00 58
20201022131730 50 250 13.0 0.0 0.00 0.00 0.00 71
20201022121726 52 270 14.0 21.0 0.00 0.00 0.00 66
20201022111727 54 270 20.0 26.0 0.00 0.00 0.00 62
20201022101725 54 280 23.0 32.0 0.00 0.00 0.00 62
20201022091723 52 250 25.0 35.0 0.00 0.00 0.00 62
20201022081723 52 260 23.0 32.0 0.00 0.00 0.00 62
20201022071727 50 250 22.0 0.0 0.00 0.00 0.00 66
20201022061723 52 250 23.0 30.0 0.00 0.00 0.00 66
20201022051723 54 250 25.0 0.0 0.00 0.00 0.00 58